Year,Month,Day,Hour,Minute,Value (Times are PST for temperature in C)
2008,07,12,00,00,14.70
2008,07,12,00,01,14.60
2008,07,12,00,02,14.60
2008,07,12,00,03,14.60
2008,07,12,00,04,14.50
2008,07,12,00,05,14.50
2008,07,12,00,06,14.50
2008,07,12,00,07,14.40
2008,07,12,00,08,14.40
2008,07,12,00,09,14.40
2008,07,12,00,10,14.30
2008,07,12,00,11,14.30
2008,07,12,00,12,14.20
2008,07,12,00,13,14.20
2008,07,12,00,14,14.20
2008,07,12,00,15,14.20
2008,07,12,00,16,14.20
2008,07,12,00,17,14.20
2008,07,12,00,18,14.20
2008,07,12,00,19,14.20
2008,07,12,00,20,14.10
2008,07,12,00,21,14.10
2008,07,12,00,22,14.10
2008,07,12,00,23,14.10
2008,07,12,00,24,14.10
2008,07,12,00,25,14.10
2008,07,12,00,26,14.10
2008,07,12,00,27,14.10
2008,07,12,00,28,14.10
2008,07,12,00,29,14.10
2008,07,12,00,30,14.10
2008,07,12,00,31,14.10
2008,07,12,00,32,14.10
2008,07,12,00,33,14.00
2008,07,12,00,34,14.00
2008,07,12,00,35,14.00
2008,07,12,00,36,14.00
2008,07,12,00,37,14.00
2008,07,12,00,38,14.00
2008,07,12,00,39,14.00
2008,07,12,00,40,14.00
2008,07,12,00,41,14.00
2008,07,12,00,42,13.90
2008,07,12,00,43,13.90
2008,07,12,00,44,13.90
2008,07,12,00,45,13.90
2008,07,12,00,46,13.90
2008,07,12,00,47,13.90
2008,07,12,00,48,13.90
2008,07,12,00,49,13.90
2008,07,12,00,50,13.90
2008,07,12,00,51,13.90
2008,07,12,00,52,13.90
2008,07,12,00,53,13.90
2008,07,12,00,54,13.90
2008,07,12,00,55,14.00
2008,07,12,00,56,14.00
2008,07,12,00,57,14.00
2008,07,12,00,58,13.90
2008,07,12,00,59,13.90
2008,07,12,01,00,13.90
2008,07,12,01,01,13.90
2008,07,12,01,02,13.90
2008,07,12,01,03,13.90
2008,07,12,01,04,13.90
2008,07,12,01,05,13.90
2008,07,12,01,06,14.00
2008,07,12,01,07,14.00
2008,07,12,01,08,14.10
2008,07,12,01,09,14.10
2008,07,12,01,10,14.20
2008,07,12,01,11,14.20
2008,07,12,01,12,14.20
2008,07,12,01,13,14.10
2008,07,12,01,14,14.10
2008,07,12,01,15,14.10
2008,07,12,01,16,14.10
2008,07,12,01,17,14.10
2008,07,12,01,18,14.10
2008,07,12,01,19,14.10
2008,07,12,01,20,14.10
2008,07,12,01,21,14.00
2008,07,12,01,22,14.00
2008,07,12,01,23,14.00
2008,07,12,01,24,14.00
2008,07,12,01,25,14.00
2008,07,12,01,26,14.10
2008,07,12,01,27,14.00
2008,07,12,01,28,14.00
2008,07,12,01,29,14.00
2008,07,12,01,30,14.00
2008,07,12,01,31,13.90
2008,07,12,01,32,13.90
2008,07,12,01,33,13.90
2008,07,12,01,34,13.80
2008,07,12,01,35,13.80
2008,07,12,01,36,13.70
2008,07,12,01,37,13.70
2008,07,12,01,38,13.70
2008,07,12,01,39,13.70
2008,07,12,01,40,13.70
2008,07,12,01,41,13.80
2008,07,12,01,42,13.80
2008,07,12,01,43,13.80
2008,07,12,01,44,13.90
2008,07,12,01,45,13.90
2008,07,12,01,46,14.00
2008,07,12,01,47,14.10
2008,07,12,01,48,14.10
2008,07,12,01,49,14.20
2008,07,12,01,50,14.20
2008,07,12,01,51,14.20
2008,07,12,01,52,14.20
2008,07,12,01,53,14.20
2008,07,12,01,54,14.20
2008,07,12,01,55,14.20
2008,07,12,01,56,14.20
2008,07,12,01,57,14.20
2008,07,12,01,58,14.20
2008,07,12,01,59,14.30
2008,07,12,02,00,14.30
2008,07,12,02,01,14.30
2008,07,12,02,02,14.30
2008,07,12,02,03,14.30
2008,07,12,02,04,14.30
2008,07,12,02,05,14.30
2008,07,12,02,06,14.30
2008,07,12,02,07,14.30
2008,07,12,02,08,14.30
2008,07,12,02,09,14.30
2008,07,12,02,10,14.30
2008,07,12,02,11,14.30
2008,07,12,02,12,14.30
2008,07,12,02,13,14.30
2008,07,12,02,14,14.30
2008,07,12,02,15,14.30
2008,07,12,02,16,14.30
2008,07,12,02,17,14.30
2008,07,12,02,18,14.20
2008,07,12,02,19,14.20
2008,07,12,02,20,14.20
2008,07,12,02,21,14.20
2008,07,12,02,22,14.20
2008,07,12,02,23,14.20
2008,07,12,02,24,14.20
2008,07,12,02,25,14.20
2008,07,12,02,26,14.20
2008,07,12,02,27,14.20
2008,07,12,02,28,14.20
2008,07,12,02,29,14.30
2008,07,12,02,30,14.30
2008,07,12,02,31,14.20
2008,07,12,02,32,14.20
2008,07,12,02,33,14.20
2008,07,12,02,34,14.20
2008,07,12,02,35,14.20
2008,07,12,02,36,14.20
2008,07,12,02,37,14.20
2008,07,12,02,38,14.20
2008,07,12,02,39,14.20
2008,07,12,02,40,14.10
2008,07,12,02,41,14.10
2008,07,12,02,42,14.10
2008,07,12,02,43,14.00
2008,07,12,02,44,14.00
2008,07,12,02,45,14.00
2008,07,12,02,46,14.00
2008,07,12,02,47,14.00
2008,07,12,02,48,14.00
2008,07,12,02,49,14.00
2008,07,12,02,50,14.00
2008,07,12,02,51,14.00
2008,07,12,02,52,14.00
2008,07,12,02,53,14.00
2008,07,12,02,54,14.00
2008,07,12,02,55,14.00
2008,07,12,02,56,14.00
2008,07,12,02,57,14.00
2008,07,12,02,58,14.00
2008,07,12,02,59,13.90
2008,07,12,03,00,13.90
2008,07,12,03,01,13.90
2008,07,12,03,02,13.90
2008,07,12,03,03,13.90
2008,07,12,03,04,13.90
2008,07,12,03,05,13.90
2008,07,12,03,06,13.90
2008,07,12,03,07,13.90
2008,07,12,03,08,13.90
2008,07,12,03,09,13.90
2008,07,12,03,10,13.90
2008,07,12,03,11,13.80
2008,07,12,03,12,13.80
2008,07,12,03,13,13.70
2008,07,12,03,14,13.70
2008,07,12,03,15,13.70
2008,07,12,03,16,13.70
2008,07,12,03,17,13.70
2008,07,12,03,18,13.70
2008,07,12,03,19,13.60
2008,07,12,03,20,13.60
2008,07,12,03,21,13.50
2008,07,12,03,22,13.50
2008,07,12,03,23,13.40
2008,07,12,03,24,13.40
2008,07,12,03,25,13.30
2008,07,12,03,26,13.30
2008,07,12,03,27,13.20
2008,07,12,03,28,13.20
2008,07,12,03,29,13.10
2008,07,12,03,30,13.10
2008,07,12,03,31,13.00
2008,07,12,03,32,12.90
2008,07,12,03,33,12.90
2008,07,12,03,34,12.80
2008,07,12,03,35,12.80
2008,07,12,03,36,12.70
2008,07,12,03,37,12.70
2008,07,12,03,38,12.60
2008,07,12,03,39,12.60
2008,07,12,03,40,12.50
2008,07,12,03,41,12.50
2008,07,12,03,42,12.50
2008,07,12,03,43,12.40
2008,07,12,03,44,12.40
2008,07,12,03,45,12.30
2008,07,12,03,46,12.30
2008,07,12,03,47,12.30
2008,07,12,03,48,12.30
2008,07,12,03,49,12.30
2008,07,12,03,50,12.30
2008,07,12,03,51,12.30
2008,07,12,03,52,12.30
2008,07,12,03,53,12.30
2008,07,12,03,54,12.30
2008,07,12,03,55,12.30
2008,07,12,03,56,12.20
2008,07,12,03,57,12.20
2008,07,12,03,58,12.20
2008,07,12,03,59,12.10
2008,07,12,04,00,12.10
2008,07,12,04,01,12.10
2008,07,12,04,02,12.10
2008,07,12,04,03,12.10
2008,07,12,04,04,12.10
2008,07,12,04,05,12.10
2008,07,12,04,06,12.00
2008,07,12,04,07,12.00
2008,07,12,04,08,12.00
2008,07,12,04,09,12.00
2008,07,12,04,10,11.90
2008,07,12,04,11,11.90
2008,07,12,04,12,11.90
2008,07,12,04,13,11.90
2008,07,12,04,14,11.80
2008,07,12,04,15,11.80
2008,07,12,04,16,11.80
2008,07,12,04,17,11.70
2008,07,12,04,18,11.70
2008,07,12,04,19,11.70
2008,07,12,04,20,11.60
2008,07,12,04,21,11.60
2008,07,12,04,22,11.60
2008,07,12,04,23,11.60
2008,07,12,04,24,11.50
2008,07,12,04,25,11.40
2008,07,12,04,26,11.40
2008,07,12,04,27,11.40
2008,07,12,04,28,11.40
2008,07,12,04,29,11.30
2008,07,12,04,30,11.30
2008,07,12,04,31,11.30
2008,07,12,04,32,11.30
2008,07,12,04,33,11.30
2008,07,12,04,34,11.20
2008,07,12,04,35,11.20
2008,07,12,04,36,11.20
2008,07,12,04,37,11.20
2008,07,12,04,38,11.20
2008,07,12,04,39,11.20
2008,07,12,04,40,11.30
2008,07,12,04,41,11.30
2008,07,12,04,42,11.30
2008,07,12,04,43,11.40
2008,07,12,04,44,11.40
2008,07,12,04,45,11.40
2008,07,12,04,46,11.40
2008,07,12,04,47,11.40
2008,07,12,04,48,11.40
2008,07,12,04,49,11.40
2008,07,12,04,50,11.40
2008,07,12,04,51,11.40
2008,07,12,04,52,11.40
2008,07,12,04,53,11.40
2008,07,12,04,54,11.40
2008,07,12,04,55,11.40
2008,07,12,04,56,11.40
2008,07,12,04,57,11.40
2008,07,12,04,58,11.40
2008,07,12,04,59,11.40
2008,07,12,05,00,11.40
2008,07,12,05,01,11.40
2008,07,12,05,02,11.40
2008,07,12,05,03,11.40
2008,07,12,05,04,11.30
2008,07,12,05,05,11.30
2008,07,12,05,06,11.30
2008,07,12,05,07,11.30
2008,07,12,05,08,11.30
2008,07,12,05,09,11.30
2008,07,12,05,10,11.30
2008,07,12,05,11,11.30
2008,07,12,05,12,11.30
2008,07,12,05,13,11.20
2008,07,12,05,14,11.20
2008,07,12,05,15,11.20
2008,07,12,05,16,11.20
2008,07,12,05,17,11.20
2008,07,12,05,18,11.20
2008,07,12,05,19,11.20
2008,07,12,05,20,11.20
2008,07,12,05,21,11.20
2008,07,12,05,22,11.20
2008,07,12,05,23,11.20
2008,07,12,05,24,11.20
2008,07,12,05,25,11.20
2008,07,12,05,26,11.20
2008,07,12,05,27,11.20
2008,07,12,05,28,11.30
2008,07,12,05,29,11.30
2008,07,12,05,30,11.30
2008,07,12,05,31,11.40
2008,07,12,05,32,11.40
2008,07,12,05,33,11.40
2008,07,12,05,34,11.40
2008,07,12,05,35,11.40
2008,07,12,05,36,11.40
2008,07,12,05,37,11.40
2008,07,12,05,38,11.30
2008,07,12,05,39,11.30
2008,07,12,05,40,11.30
2008,07,12,05,41,11.30
2008,07,12,05,42,11.30
2008,07,12,05,43,11.30
2008,07,12,05,44,11.30
2008,07,12,05,45,11.30
2008,07,12,05,46,11.30
2008,07,12,05,47,11.30
2008,07,12,05,48,11.30
2008,07,12,05,49,11.30
2008,07,12,05,50,11.30
2008,07,12,05,51,11.30
2008,07,12,05,52,11.40
2008,07,12,05,53,11.40
2008,07,12,05,54,11.40
2008,07,12,05,55,11.40
2008,07,12,05,56,11.50
2008,07,12,05,57,11.60
2008,07,12,05,58,11.60
2008,07,12,05,59,11.60
2008,07,12,06,00,11.70
2008,07,12,06,01,11.70
2008,07,12,06,02,11.80
2008,07,12,06,03,11.80
2008,07,12,06,04,11.90
2008,07,12,06,05,11.90
2008,07,12,06,06,11.90
2008,07,12,06,07,12.00
2008,07,12,06,08,12.10
2008,07,12,06,09,12.10
2008,07,12,06,10,12.10
2008,07,12,06,11,12.10
2008,07,12,06,12,12.20
2008,07,12,06,13,12.20
2008,07,12,06,14,12.20
2008,07,12,06,15,12.20
2008,07,12,06,16,12.20
2008,07,12,06,17,12.20
2008,07,12,06,18,12.30
2008,07,12,06,19,12.30
2008,07,12,06,20,12.30
2008,07,12,06,21,12.40
2008,07,12,06,22,12.50
2008,07,12,06,23,12.50
2008,07,12,06,24,12.60
2008,07,12,06,25,12.60
2008,07,12,06,26,12.70
2008,07,12,06,27,12.80
2008,07,12,06,28,13.00
2008,07,12,06,29,13.10
2008,07,12,06,30,13.20
2008,07,12,06,31,13.20
2008,07,12,06,32,13.30
2008,07,12,06,33,13.30
2008,07,12,06,34,13.30
2008,07,12,06,35,13.40
2008,07,12,06,36,13.50
2008,07,12,06,37,13.60
2008,07,12,06,38,13.70
2008,07,12,06,39,13.70
2008,07,12,06,40,13.80
2008,07,12,06,41,13.80
2008,07,12,06,42,13.90
2008,07,12,06,43,13.90
2008,07,12,06,44,13.90
2008,07,12,06,45,14.00
2008,07,12,06,46,14.00
2008,07,12,06,47,14.00
2008,07,12,06,48,14.00
2008,07,12,06,49,14.00
2008,07,12,06,50,14.00
2008,07,12,06,51,14.00
2008,07,12,06,52,14.00
2008,07,12,06,53,14.00
2008,07,12,06,54,14.10
2008,07,12,06,55,14.10
2008,07,12,06,56,14.10
2008,07,12,06,57,14.10
2008,07,12,06,58,14.20
2008,07,12,06,59,14.20
2008,07,12,07,00,14.20
2008,07,12,07,01,14.40
2008,07,12,07,02,14.60
2008,07,12,07,03,14.80
2008,07,12,07,04,15.00
2008,07,12,07,05,15.20
2008,07,12,07,06,15.30
2008,07,12,07,07,15.30
2008,07,12,07,08,15.50
2008,07,12,07,09,15.60
2008,07,12,07,10,15.70
2008,07,12,07,11,15.80
2008,07,12,07,12,15.80
2008,07,12,07,13,15.80
2008,07,12,07,14,15.90
2008,07,12,07,15,16.00
2008,07,12,07,16,16.20
2008,07,12,07,17,16.40
2008,07,12,07,18,16.60
2008,07,12,07,19,16.80
2008,07,12,07,20,16.90
2008,07,12,07,21,17.00
2008,07,12,07,22,17.10
2008,07,12,07,23,17.10
2008,07,12,07,24,17.20
2008,07,12,07,25,17.30
2008,07,12,07,26,17.30
2008,07,12,07,27,17.40
2008,07,12,07,28,17.50
2008,07,12,07,29,17.60
2008,07,12,07,30,17.70
2008,07,12,07,31,17.80
2008,07,12,07,32,17.90
2008,07,12,07,33,18.00
2008,07,12,07,34,18.10
2008,07,12,07,35,18.20
2008,07,12,07,36,18.30
2008,07,12,07,37,18.40
2008,07,12,07,38,18.50
2008,07,12,07,39,18.60
2008,07,12,07,40,18.70
2008,07,12,07,41,18.80
2008,07,12,07,42,18.80
2008,07,12,07,43,18.90
2008,07,12,07,44,18.90
2008,07,12,07,45,18.90
2008,07,12,07,46,18.90
2008,07,12,07,47,19.00
2008,07,12,07,48,19.10
2008,07,12,07,49,19.10
2008,07,12,07,50,19.20
2008,07,12,07,51,19.30
2008,07,12,07,52,19.40
2008,07,12,07,53,19.50
2008,07,12,07,54,19.60
2008,07,12,07,55,19.70
2008,07,12,07,56,19.70
2008,07,12,07,57,19.80
2008,07,12,07,58,19.90
2008,07,12,07,59,19.90
2008,07,12,08,00,19.90
2008,07,12,08,01,20.00
2008,07,12,08,02,20.10
2008,07,12,08,03,20.20
2008,07,12,08,04,20.20
2008,07,12,08,05,20.30
2008,07,12,08,06,20.30
2008,07,12,08,07,20.40
2008,07,12,08,08,20.50
2008,07,12,08,09,20.50
2008,07,12,08,10,20.60
2008,07,12,08,11,20.60
2008,07,12,08,12,20.70
2008,07,12,08,13,20.80
2008,07,12,08,14,20.80
2008,07,12,08,15,20.80
2008,07,12,08,16,20.80
2008,07,12,08,17,20.80
2008,07,12,08,18,20.80
2008,07,12,08,19,20.80
2008,07,12,08,20,20.80
2008,07,12,08,21,20.80
2008,07,12,08,22,20.80
2008,07,12,08,23,20.80
2008,07,12,08,24,20.80
2008,07,12,08,25,20.80
2008,07,12,08,26,20.80
2008,07,12,08,27,20.90
2008,07,12,08,28,20.90
2008,07,12,08,29,20.90
2008,07,12,08,30,20.90
2008,07,12,08,31,20.90
2008,07,12,08,32,20.90
2008,07,12,08,33,20.90
2008,07,12,08,34,21.00
2008,07,12,08,35,21.00
2008,07,12,08,36,21.00
2008,07,12,08,37,21.00
2008,07,12,08,38,21.10
2008,07,12,08,39,21.10
2008,07,12,08,40,21.10
2008,07,12,08,41,21.20
2008,07,12,08,42,21.30
2008,07,12,08,43,21.30
2008,07,12,08,44,21.30
2008,07,12,08,45,21.30
2008,07,12,08,46,21.30
2008,07,12,08,47,21.30
2008,07,12,08,48,21.30
2008,07,12,08,49,21.30
2008,07,12,08,50,21.30
2008,07,12,08,51,21.30
2008,07,12,08,52,21.40
2008,07,12,08,53,21.50
2008,07,12,08,54,21.60
2008,07,12,08,55,21.60
2008,07,12,08,56,21.70
2008,07,12,08,57,21.90
2008,07,12,08,58,22.00
2008,07,12,08,59,22.10
2008,07,12,09,00,22.20
2008,07,12,09,01,22.30
2008,07,12,09,02,22.30
2008,07,12,09,03,22.40
2008,07,12,09,04,22.40
2008,07,12,09,05,22.40
2008,07,12,09,06,22.50
2008,07,12,09,07,22.60
2008,07,12,09,08,22.50
2008,07,12,09,09,22.40
2008,07,12,09,10,22.40
2008,07,12,09,11,22.50
2008,07,12,09,12,22.40
2008,07,12,09,13,22.40
2008,07,12,09,14,22.30
2008,07,12,09,15,22.30
2008,07,12,09,16,22.30
2008,07,12,09,17,22.40
2008,07,12,09,18,22.40
2008,07,12,09,19,22.40
2008,07,12,09,20,22.30
2008,07,12,09,21,22.40
2008,07,12,09,22,22.40
2008,07,12,09,23,22.40
2008,07,12,09,24,22.50
2008,07,12,09,25,22.60
2008,07,12,09,26,22.70
2008,07,12,09,27,22.70
2008,07,12,09,28,22.80
2008,07,12,09,29,22.80
2008,07,12,09,30,22.80
2008,07,12,09,31,22.90
2008,07,12,09,32,23.00
2008,07,12,09,33,23.10
2008,07,12,09,34,23.10
2008,07,12,09,35,23.20
2008,07,12,09,36,23.30
2008,07,12,09,37,23.30
2008,07,12,09,38,23.30
2008,07,12,09,39,23.30
2008,07,12,09,40,23.40
2008,07,12,09,41,23.40
2008,07,12,09,42,23.30
2008,07,12,09,43,23.30
2008,07,12,09,44,23.30
2008,07,12,09,45,23.30
2008,07,12,09,46,23.30
2008,07,12,09,47,23.30
2008,07,12,09,48,23.30
2008,07,12,09,49,23.40
2008,07,12,09,50,23.50
2008,07,12,09,51,23.60
2008,07,12,09,52,23.70
2008,07,12,09,53,23.70
2008,07,12,09,54,23.80
2008,07,12,09,55,23.80
2008,07,12,09,56,23.80
2008,07,12,09,57,23.80
2008,07,12,09,58,23.70
2008,07,12,09,59,23.70
2008,07,12,10,00,23.80
2008,07,12,10,01,23.80
2008,07,12,10,02,23.80
2008,07,12,10,03,23.70
2008,07,12,10,04,23.70
2008,07,12,10,05,23.70
2008,07,12,10,06,23.70
2008,07,12,10,07,23.70
2008,07,12,10,08,23.70
2008,07,12,10,09,23.70
2008,07,12,10,10,23.80
2008,07,12,10,11,23.80
2008,07,12,10,12,23.80
2008,07,12,10,13,23.80
2008,07,12,10,14,23.70
2008,07,12,10,15,23.70
2008,07,12,10,16,23.70
2008,07,12,10,17,23.70
2008,07,12,10,18,23.70
2008,07,12,10,19,23.70
2008,07,12,10,20,23.80
2008,07,12,10,21,23.70
2008,07,12,10,22,23.70
2008,07,12,10,23,23.70
2008,07,12,10,24,23.80
2008,07,12,10,25,23.80
2008,07,12,10,26,23.80
2008,07,12,10,27,23.80
2008,07,12,10,28,23.80
2008,07,12,10,29,23.80
2008,07,12,10,30,23.80
2008,07,12,10,31,23.80
2008,07,12,10,32,23.90
2008,07,12,10,33,23.90
2008,07,12,10,34,23.90
2008,07,12,10,35,23.90
2008,07,12,10,36,23.90
2008,07,12,10,37,23.90
2008,07,12,10,38,24.00
2008,07,12,10,39,24.10
2008,07,12,10,40,24.10
2008,07,12,10,41,24.10
2008,07,12,10,42,24.00
2008,07,12,10,43,23.90
2008,07,12,10,44,23.80
2008,07,12,10,45,23.80
2008,07,12,10,46,23.80
2008,07,12,10,47,23.90
2008,07,12,10,48,23.90
2008,07,12,10,49,23.90
2008,07,12,10,50,24.10
2008,07,12,10,51,24.10
2008,07,12,10,52,24.10
2008,07,12,10,53,24.20
2008,07,12,10,54,24.20
2008,07,12,10,55,24.30
2008,07,12,10,56,24.40
2008,07,12,10,57,24.40
2008,07,12,10,58,24.50
2008,07,12,10,59,24.60
2008,07,12,11,00,24.60
2008,07,12,11,01,24.60
2008,07,12,11,02,24.60
2008,07,12,11,03,24.60
2008,07,12,11,04,24.60
2008,07,12,11,05,24.60
2008,07,12,11,06,24.60
2008,07,12,11,07,24.60
2008,07,12,11,08,24.60
2008,07,12,11,09,24.60
2008,07,12,11,10,24.60
2008,07,12,11,11,24.70
2008,07,12,11,12,24.80
2008,07,12,11,13,24.80
2008,07,12,11,14,24.70
2008,07,12,11,15,24.80
2008,07,12,11,16,24.90
2008,07,12,11,17,24.90
2008,07,12,11,18,24.80
2008,07,12,11,19,24.80
2008,07,12,11,20,24.80
2008,07,12,11,21,24.80
2008,07,12,11,22,24.80
2008,07,12,11,23,24.80
2008,07,12,11,24,24.90
2008,07,12,11,25,24.90
2008,07,12,11,26,24.90
2008,07,12,11,27,25.00
2008,07,12,11,28,25.00
2008,07,12,11,29,25.00
2008,07,12,11,30,24.90
2008,07,12,11,31,24.80
2008,07,12,11,32,24.80
2008,07,12,11,33,24.70
2008,07,12,11,34,24.80
2008,07,12,11,35,24.90
2008,07,12,11,36,25.00
2008,07,12,11,37,25.00
2008,07,12,11,38,25.10
2008,07,12,11,39,25.10
2008,07,12,11,40,25.00
2008,07,12,11,41,25.00
2008,07,12,11,42,25.10
2008,07,12,11,43,25.10
2008,07,12,11,44,25.10
2008,07,12,11,45,25.20
2008,07,12,11,46,25.20
2008,07,12,11,47,25.20
2008,07,12,11,48,25.20
2008,07,12,11,49,25.20
2008,07,12,11,50,25.00
2008,07,12,11,51,24.90
2008,07,12,11,52,24.90
2008,07,12,11,53,24.90
2008,07,12,11,54,24.90
2008,07,12,11,55,25.00
2008,07,12,11,56,25.20
2008,07,12,11,57,25.30
2008,07,12,11,58,25.40
2008,07,12,11,59,25.50
2008,07,12,12,00,25.40
2008,07,12,12,01,25.40
2008,07,12,12,02,25.30
2008,07,12,12,03,25.20
2008,07,12,12,04,25.10
2008,07,12,12,05,24.90
2008,07,12,12,06,24.80
2008,07,12,12,07,24.80
2008,07,12,12,08,24.60
2008,07,12,12,09,24.50
2008,07,12,12,10,24.40
2008,07,12,12,11,24.50
2008,07,12,12,12,24.50
2008,07,12,12,13,24.40
2008,07,12,12,14,24.30
2008,07,12,12,15,24.30
2008,07,12,12,16,24.40
2008,07,12,12,17,24.50
2008,07,12,12,18,24.50
2008,07,12,12,19,24.60
2008,07,12,12,20,24.70
2008,07,12,12,21,24.80
2008,07,12,12,22,24.80
2008,07,12,12,23,24.90
2008,07,12,12,24,24.90
2008,07,12,12,25,24.90
2008,07,12,12,26,24.90
2008,07,12,12,27,24.90
2008,07,12,12,28,25.00
2008,07,12,12,29,24.90
2008,07,12,12,30,24.90
2008,07,12,12,31,24.80
2008,07,12,12,32,24.80
2008,07,12,12,33,24.70
2008,07,12,12,34,24.40
2008,07,12,12,35,24.30
2008,07,12,12,36,24.30
2008,07,12,12,37,24.20
2008,07,12,12,38,24.30
2008,07,12,12,39,24.30
2008,07,12,12,40,24.10
2008,07,12,12,41,24.10
2008,07,12,12,42,24.10
2008,07,12,12,43,24.10
2008,07,12,12,44,24.10
2008,07,12,12,45,24.10
2008,07,12,12,46,24.10
2008,07,12,12,47,24.10
2008,07,12,12,48,24.10
2008,07,12,12,49,24.10
2008,07,12,12,50,24.10
2008,07,12,12,51,23.90
2008,07,12,12,52,23.80
2008,07,12,12,53,23.70
2008,07,12,12,54,23.70
2008,07,12,12,55,23.80
2008,07,12,12,56,24.00
2008,07,12,12,57,24.20
2008,07,12,12,58,24.40
2008,07,12,12,59,24.60
2008,07,12,13,00,24.70
2008,07,12,13,01,24.60
2008,07,12,13,02,24.50
2008,07,12,13,03,24.50
2008,07,12,13,04,24.40
2008,07,12,13,05,24.50
2008,07,12,13,06,24.60
2008,07,12,13,07,24.70
2008,07,12,13,08,24.80
2008,07,12,13,09,24.90
2008,07,12,13,10,24.90
2008,07,12,13,11,24.90
2008,07,12,13,12,24.90
2008,07,12,13,13,24.90
2008,07,12,13,14,25.00
2008,07,12,13,15,25.10
2008,07,12,13,16,25.30
2008,07,12,13,17,25.30
2008,07,12,13,18,25.30
2008,07,12,13,19,25.40
2008,07,12,13,20,25.40
2008,07,12,13,21,25.50
2008,07,12,13,22,25.50
2008,07,12,13,23,25.50
2008,07,12,13,24,25.60
2008,07,12,13,25,25.60
2008,07,12,13,26,25.70
2008,07,12,13,27,25.80
2008,07,12,13,28,25.80
2008,07,12,13,29,25.90
2008,07,12,13,30,25.90
2008,07,12,13,31,26.00
2008,07,12,13,32,26.10
2008,07,12,13,33,26.10
2008,07,12,13,34,26.10
2008,07,12,13,35,26.10
2008,07,12,13,36,26.20
2008,07,12,13,37,26.30
2008,07,12,13,38,26.30
2008,07,12,13,39,26.30
2008,07,12,13,40,26.40
2008,07,12,13,41,26.40
2008,07,12,13,42,26.60
2008,07,12,13,43,26.60
2008,07,12,13,44,26.60
2008,07,12,13,45,26.70
2008,07,12,13,46,26.60
2008,07,12,13,47,26.30
2008,07,12,13,48,26.20
2008,07,12,13,49,25.90
2008,07,12,13,50,25.70
2008,07,12,13,51,25.60
2008,07,12,13,52,25.50
2008,07,12,13,53,25.40
2008,07,12,13,54,25.40
2008,07,12,13,55,25.40
2008,07,12,13,56,25.40
2008,07,12,13,57,25.40
2008,07,12,13,58,25.50
2008,07,12,13,59,25.60
2008,07,12,14,00,25.60
2008,07,12,14,01,25.60
2008,07,12,14,02,25.60
2008,07,12,14,03,25.60
2008,07,12,14,04,25.60
2008,07,12,14,05,25.70
2008,07,12,14,06,25.70
2008,07,12,14,07,25.80
2008,07,12,14,08,25.90
2008,07,12,14,09,25.90
2008,07,12,14,10,26.00
2008,07,12,14,11,26.00
2008,07,12,14,12,25.90
2008,07,12,14,13,25.80
2008,07,12,14,14,25.70
2008,07,12,14,15,25.80
2008,07,12,14,16,25.90
2008,07,12,14,17,25.90
2008,07,12,14,18,26.10
2008,07,12,14,19,26.20
2008,07,12,14,20,26.40
2008,07,12,14,21,26.50
2008,07,12,14,22,26.60
2008,07,12,14,23,26.60
2008,07,12,14,24,26.50
2008,07,12,14,25,26.40
2008,07,12,14,26,26.40
2008,07,12,14,27,26.30
2008,07,12,14,28,26.00
2008,07,12,14,29,25.80
2008,07,12,14,30,25.70
2008,07,12,14,31,25.50
2008,07,12,14,32,25.40
2008,07,12,14,33,25.40
2008,07,12,14,34,25.50
2008,07,12,14,35,25.50
2008,07,12,14,36,25.30
2008,07,12,14,37,25.20
2008,07,12,14,38,25.10
2008,07,12,14,39,25.00
2008,07,12,14,40,24.90
2008,07,12,14,41,24.70
2008,07,12,14,42,24.70
2008,07,12,14,43,24.70
2008,07,12,14,44,24.60
2008,07,12,14,45,24.60
2008,07,12,14,46,24.60
2008,07,12,14,47,24.80
2008,07,12,14,48,24.80
2008,07,12,14,49,24.80
2008,07,12,14,50,24.80
2008,07,12,14,51,24.70
2008,07,12,14,52,24.60
2008,07,12,14,53,24.50
2008,07,12,14,54,24.50
2008,07,12,14,55,24.60
2008,07,12,14,56,24.70
2008,07,12,14,57,24.80
2008,07,12,14,58,24.90
2008,07,12,14,59,24.90
2008,07,12,15,00,25.00
2008,07,12,15,01,25.10
2008,07,12,15,02,25.20
2008,07,12,15,03,25.30
2008,07,12,15,04,25.30
2008,07,12,15,05,25.40
2008,07,12,15,06,25.60
2008,07,12,15,07,25.60
2008,07,12,15,08,25.70
2008,07,12,15,09,25.70
2008,07,12,15,10,25.70
2008,07,12,15,11,25.80
2008,07,12,15,12,25.80
2008,07,12,15,13,25.70
2008,07,12,15,14,25.60
2008,07,12,15,15,25.50
2008,07,12,15,16,25.50
2008,07,12,15,17,25.50
2008,07,12,15,18,25.40
2008,07,12,15,19,25.30
2008,07,12,15,20,25.30
2008,07,12,15,21,25.30
2008,07,12,15,22,25.30
2008,07,12,15,23,25.30
2008,07,12,15,24,25.30
2008,07,12,15,25,25.20
2008,07,12,15,26,25.20
2008,07,12,15,27,25.00
2008,07,12,15,28,24.90
2008,07,12,15,29,24.70
2008,07,12,15,30,24.70
2008,07,12,15,31,24.60
2008,07,12,15,32,24.60
2008,07,12,15,33,24.70
2008,07,12,15,34,24.70
2008,07,12,15,35,24.80
2008,07,12,15,36,24.90
2008,07,12,15,37,25.00
2008,07,12,15,38,25.10
2008,07,12,15,39,25.20
2008,07,12,15,40,25.30
2008,07,12,15,41,25.30
2008,07,12,15,42,25.30
2008,07,12,15,43,25.20
2008,07,12,15,44,25.10
2008,07,12,15,45,25.10
2008,07,12,15,46,25.10
2008,07,12,15,47,25.00
2008,07,12,15,48,24.90
2008,07,12,15,49,24.90
2008,07,12,15,50,24.90
2008,07,12,15,51,24.90
2008,07,12,15,52,25.00
2008,07,12,15,53,25.00
2008,07,12,15,54,25.00
2008,07,12,15,55,25.00
2008,07,12,15,56,25.00
2008,07,12,15,57,25.10
2008,07,12,15,58,25.10
2008,07,12,15,59,25.10
2008,07,12,16,00,25.20
2008,07,12,16,01,25.30
2008,07,12,16,02,25.30
2008,07,12,16,03,25.30
2008,07,12,16,04,25.30
2008,07,12,16,05,25.30
2008,07,12,16,06,25.20
2008,07,12,16,07,25.20
2008,07,12,16,08,25.20
2008,07,12,16,09,25.30
2008,07,12,16,10,25.40
2008,07,12,16,11,25.50
2008,07,12,16,12,25.60
2008,07,12,16,13,25.60
2008,07,12,16,14,25.60
2008,07,12,16,15,25.60
2008,07,12,16,16,25.60
2008,07,12,16,17,25.70
2008,07,12,16,18,25.80
2008,07,12,16,19,25.90
2008,07,12,16,20,26.00
2008,07,12,16,21,26.00
2008,07,12,16,22,26.00
2008,07,12,16,23,25.90
2008,07,12,16,24,25.80
2008,07,12,16,25,25.80
2008,07,12,16,26,25.80
2008,07,12,16,27,25.90
2008,07,12,16,28,26.00
2008,07,12,16,29,26.10
2008,07,12,16,30,26.10
2008,07,12,16,31,26.20
2008,07,12,16,32,26.20
2008,07,12,16,33,26.30
2008,07,12,16,34,26.30
2008,07,12,16,35,26.30
2008,07,12,16,36,26.30
2008,07,12,16,37,26.20
2008,07,12,16,38,26.20
2008,07,12,16,39,26.10
2008,07,12,16,40,26.10
2008,07,12,16,41,26.00
2008,07,12,16,42,25.90
2008,07,12,16,43,25.90
2008,07,12,16,44,25.90
2008,07,12,16,45,25.90
2008,07,12,16,46,25.90
2008,07,12,16,47,25.80
2008,07,12,16,48,25.80
2008,07,12,16,49,25.60
2008,07,12,16,50,25.50
2008,07,12,16,51,25.40
2008,07,12,16,52,25.40
2008,07,12,16,53,25.40
2008,07,12,16,54,25.40
2008,07,12,16,55,25.40
2008,07,12,16,56,25.30
2008,07,12,16,57,25.30
2008,07,12,16,58,25.20
2008,07,12,16,59,25.20
2008,07,12,17,00,25.10
2008,07,12,17,01,25.30
2008,07,12,17,02,25.20
2008,07,12,17,03,25.20
2008,07,12,17,04,25.10
2008,07,12,17,05,25.00
2008,07,12,17,06,25.00
2008,07,12,17,07,24.90
2008,07,12,17,08,25.00
2008,07,12,17,09,25.10
2008,07,12,17,10,25.10
2008,07,12,17,11,25.20
2008,07,12,17,12,25.20
2008,07,12,17,13,25.20
2008,07,12,17,14,25.20
2008,07,12,17,15,25.20
2008,07,12,17,16,25.20
2008,07,12,17,17,25.20
2008,07,12,17,18,25.20
2008,07,12,17,19,25.30